Location: U-46 Planetarium
(42.0300°N, 88.2740°W)
Time: 06:53:26
(UTC-05:00)

SJ 16-02 - Pass Details

Date: 16 December 2017
Orbit: 606 x 617 km, 75.0° (Epoch: 17 July)

Event Time Altitude Azimuth Distance (km) Brightness Sun altitude
Rises 16:46:49 0° 166° (SSE) 2,851 4.9 -4.7°
Reaches altitude 10° 16:49:21 10° 153° (SSE) 1,954 3.9 -5.1°
Maximum altitude 16:52:52 24° 99° (E) 1,264 2.5 -5.7°
Drops below altitude 10° 16:56:25 10° 45° (NE) 1,972 3.3 -6.3°
Enters shadow 16:57:38 - 37° (NE) 2,391 3.8 -6.5°
